Regional Weather Roundup
Issued by NWS

Home | Current Version | Previous Version | Graphics & Text | Print | Product List | Glossary On
Versions: 1 2 3 4 5 6 7 8 9 10 11 12 13 14 15 16 17 18 19 20 21 22 23 24 25 26 27 28 29 30 31 32 33 34 35 36 37 38 39 40 41 42 43 44 45 46 47 48 49 50
000
ASUS43 KMPX 251910
RWRMN
WEATHER ROUNDUP FOR MINNESOTA
NATIONAL WEATHER SERVICE TWIN CITIES/CHANHASSEN MN
200 PM CDT SAT OCT 25 2014


NOTE: "FAIR" INDICATES FEW OR NO CLOUDS BELOW 12,000 FEET WITH NO
SIGNIFICANT WEATHER AND/OR OBSTRUCTIONS TO VISIBILITY. N/A MEANS
CURRENT SKY AND/OR WEATHER CONDITIONS ARE NOT AVAILABLE.

MNZ060>063-068>070-252000-
   Twin Cities Metro

CITY           SKY/WX    TMP DP  RH WIND       PRES   REMARKS
TWIN CITIES    SUNNY     61  29  29 W17       30.04F
ST PAUL        SUNNY     61  31  32 W16G22    30.04F
CRYSTAL        SUNNY     63  28  26 W18G26    30.03F
BLAINE         SUNNY     63  30  29 W17       30.02F
LAKEVILLE      SUNNY     61  30  31 W17G23    30.04F
EDEN PRAIRIE   SUNNY     62  28  27 NW18G25   30.04F
SOUTH ST PAUL  SUNNY     62  29  29 W13       30.03F
LAKE ELMO      FAIR      63  32  31 NW13      30.03S
$$
MNZ001>005-007-008-013>017-022>024-027-028-252000-
   Northwest Minnesota

CITY           SKY/WX    TMP DP  RH WIND       PRES   REMARKS
BEMIDJI        SUNNY     54  27  35 NW22G30   30.00F
HALLOCK        SUNNY     57  23  26 NW17G26   30.02F
ROSEAU         SUNNY     55  28  35 NW20G26   29.98S
WARROAD        SUNNY     54  30  40 W21G29    29.97S
THIEF RVR FALL SUNNY    N/A N/A N/A NW21G28   30.03S
CROOKSTON      SUNNY     57  28  33 NW20G25   30.06S
FOSSTON        SUNNY     55  25  30 NW15G28   30.05F
DETROIT LAKES  SUNNY     55  28  35 NW17      30.08F
MOORHEAD       SUNNY     59  18  20 NW12G21   30.10F
PARK RAPIDS    SUNNY     57  24  28 NW21G26   30.03F
MAHNOMEN       FAIR      56  27  32 NW18      30.06S
$$
MNZ006-009>011-018-025>026-252000-
   North Central Minnesota

CITY           SKY/WX    TMP DP  RH WIND       PRES   REMARKS
FLAG ISLAND    SUNNY     52  32  46 NW25G33   29.91S
INTL FALLS     SUNNY     53  29  39 W24G33    29.90S
WASKISH        SUNNY     54  34  47 W14G23    29.98S
BIG FORK       SUNNY     55  27  33 W12G22    29.95F
LONGVILLE      SUNNY     55  27  33 W14       30.00F
GRAND RAPIDS   SUNNY     54  27  35 W23G31    29.97S
CRANE LAKE     SUNNY     52  27  37 NW12G31   29.88S
ORR            SUNNY     54  23  30 NW20G29   29.87S
COOK           SUNNY     54  28  37 W22G30    29.90S
WALKER         FAIR      55  26  32 NW10G21   30.00F
$$
MNZ012-019>021-037-252000-
   Northeast Minnesota

CITY           SKY/WX    TMP DP  RH WIND       PRES   REMARKS
DULUTH         SUNNY     57  28  33 W18G32    29.90S
ELY            SUNNY     54  28  37 NW13G32   29.84F
HIBBING        SUNNY     56  27  32 W15G28    29.92S
EVELETH        SUNNY     54  28  37 W24G31    29.91S
DULUTH HARBOR  SUNNY     59  30  33 W28G33    29.91S
TWO HARBORS    SUNNY     61  10  13 W15G22    29.85S
SILVER BAY     SUNNY     59  27  29 W13G28    29.82F
GRAND MARAIS     N/A     58  30  34 NW15G32   29.76R
G MARAIS ARPRT SUNNY     52  27  37 W15G29    29.77R
$$
MNZ029>031-032-039>041-046>048-054>057-064-252000-
   West Central Minnesota

CITY           SKY/WX    TMP DP  RH WIND       PRES   REMARKS
FERGUS FALLS   SUNNY     57  25  28 NW13      30.11S
WHEATON        SUNNY     59  30  33 NW14G21   30.13F
MORRIS         SUNNY     61  30  31 NW16G26   30.10F
ALEXANDRIA     SUNNY     58  29  33 NW16G23   30.10F
ELBOW LAKE     FAIR      56  29  35 NW13G20   30.10F
WADENA         SUNNY     55  28  35 W14G23    30.06S
GLENWOOD       SUNNY     57  27  30 NW15      30.10S
APPLETON       SUNNY     64  27  24 NW14      30.11F
BENSON         SUNNY     61  30  31 N12G22    30.11F
ORTONVILLE     SUNNY     61  28  29 NW9G18    30.11F
MADISON        SUNNY     64  30  27 N12       30.12F
WILLMAR        FAIR      63  27  25 NW18G26   30.11F
$$
MNZ033>034-036-042>043-049>051-058-059-252000-
   Central Minnesota

CITY           SKY/WX    TMP DP  RH WIND       PRES   REMARKS
ST CLOUD       SUNNY     65  24  21 W20G26    30.04F
SAUK CENTRE    FAIR      58  27  30 W18G26    30.08S
PAYNESVILLE    SUNNY     57  27  31 W18G26    30.09S
AITKIN         SUNNY     63  16  16 NW10G22   29.97F
PINE RIVER     SUNNY     57  30  35 NW13G20   30.04S
BRAINERD       SUNNY     58  22  24 NW16G30   30.02S
STAPLES        SUNNY     57  25  28 W20G25    30.05S
LONG PRAIRIE   FAIR      55  27  33 W17G25    30.07S
LITTLE FALLS   SUNNY     59  27  29 W17G23    30.04S
LITCHFIELD     SUNNY     63  28  27 NW14G25   30.08F
BUFFALO        SUNNY     60  30  31 W16       30.06F
MAPLE LAKE     SUNNY     62  32  33 NW13G23   30.06F
$$
MNZ037-044-045-052-053-252000-
   East Central Minnesota

CITY           SKY/WX    TMP DP  RH WIND       PRES   REMARKS
PRINCETON      SUNNY     63  27  25 W16G24    30.03S
MORA           SUNNY     61  27  27 NW18G24   30.01S
CAMBRIDGE      SUNNY     63  37  39 W17G26    30.00S
RUSH CITY      MOSUNNY   63  28  26 NW13G20   30.00F
MOOSE LAKE     SUNNY     61  28  29 NW16G25   29.94S
HINCKLEY       FAIR      61  30  31 W16G24    29.99R
CLOQUET        SUNNY     57  23  26 W22G32    29.92F
MCGREGOR       SUNNY     59  27  29 NW18G24   29.97F
$$
MNZ071>073-080-081-089-090-097-098-252000-
   Southwest Minnesota

CITY           SKY/WX    TMP DP  RH WIND       PRES   REMARKS
MONTEVIDEO     SUNNY     64  32  29 N13G18    30.11F
GRANITE FALLS  SUNNY     63  32  31 NW15      30.13F
CANBY          SUNNY     62  33  33 N7G16     30.13F
MARSHALL       SUNNY     63  28  27 N13       30.11F
REDWOOD FALLS  SUNNY     63  31  30 NW9       30.10F
OLIVIA         SUNNY     63  32  31 NW14G20   30.09F
PIPESTONE      SUNNY     64  27  24 N9        30.12F
WINDOM         SUNNY     64  28  25 NW10G18   30.12S
WORTHINGTON    SUNNY     63  28  27 N8        30.13F
JACKSON        SUNNY     64  27  24 NW10      30.12F
TRACY          SUNNY     65  31  28 NW10G16   30.12F
SLAYTON        SUNNY     63  28  27 NW9       30.13F
$$
MNZ065>067-074>077-082>085-091>093-252000-
   South Central Minnesota

CITY           SKY/WX    TMP DP  RH WIND       PRES   REMARKS
MANKATO        SUNNY     63  28  27 NW17G24   30.08F
NEW ULM        SUNNY     63  34  34 NW17      30.09F
ST JAMES       SUNNY     64  25  22 NW14G21   30.11F
FAIRMONT       SUNNY     64  -8   5 N16       30.10F
GLENCOE        SUNNY     64  32  30 W23G31    30.07F
FARIBAULT      SUNNY     64  28  25 NW13G22   30.07F
OWATONNA       SUNNY     64  27  24 NW16      30.07F
WASECA         SUNNY     63  23  22 NW15G21   30.09F
ALBERT LEA     SUNNY     64  27  24 N10       30.08S
$$
MNZ078>079-086>088-094>096-252000-
   Southeast Minnesota

CITY           SKY/WX    TMP DP  RH WIND       PRES   REMARKS
ROCHESTER      SUNNY     63  29  27 NW17G25   30.05F
RED WING       SUNNY     63  27  25 NW12G18   30.02S
STANTON        SUNNY     63  28  26 NW18      30.04F
DODGE CENTER   SUNNY     63  28  27 NW17G25   30.06S
WINONA         SUNNY     63  34  34 W10G20    30.01F
AUSTIN         SUNNY     63  30  29 NW16G22   30.06F
PRESTON        SUNNY     61  31  32 NW20G25   30.04S
$$
ABBREVIATIONS USED IN REMARKS
   TC - TEMPERATURES IN CELSIUS
  WCI - WIND CHILL INDEX
   HX - HEAT INDEX
  VSB - VISIBILITY
$$



USA.gov is the U.S. government's official web portal to all federal, state and local government web resources and services.